{"data":{"norad_id":68880,"epoch":"2026-05-24T23:12:39.384864Z","epoch_age_seconds":67954,"freshness":"FRESH","line1":"1 68880U 26095S   26144.96712251  .00026197  00000+0  74409-3 0  9993","line2":"2 68880  51.8769 354.8985 0010012 222.6579 137.3630 15.35962765  4159","mean_motion":15.35962765,"eccentricity":0.0010012,"inclination_deg":51.8769,"raan_deg":354.8985,"arg_perigee_deg":222.6579,"mean_anomaly_deg":137.363,"bstar":0.00074409,"rev_number":415,"period_min":93.752272699137,"perigee_km":451.21790924925,"apogee_km":464.9067147516,"semimajor_km":6836.1993120004,"source":"CELESTRAK","updated_at":"2026-05-25T13:38:08.648841Z"}}